This demonstration page uses our WeatherBlox Daily Observations layout. Learn more.

Left ArrowRight Arrow

Hourly Observations for March 10, 2020

Temp ( °F °C ) Dew Point ( °F °C ) Humidity (%) Winds ( mph kmh ) Pressure ( in mb ) Visibility ( mi km ) Precip ( " mm )
12:53 am 00:53 Cloudy 59 15 46 7.8 62 62 VRB 6 9 30.08 1019 10 16.0934 0.001 0.001
1:53 am 01:53 Cloudy 59 15 47 8.3 64 64 S 8 13 30.05 1018 10 16.0934 0.001 0.001
2:53 am 02:53 Cloudy with Light Rain 57 13.9 50 10 78 78 SSW 8 13 30.05 1018 10 16.0934 0.03 0.762
3:53 am 03:53 Cloudy 56 13.3 51 10.6 84 84 SSW 12 19 30.03 1017 10 16.0934 0.03 0.762
4:02 am 04:02 Cloudy 56 13.3 51 10.6 84 84 SSW 10 17 30.03 1017 10 16.0934 N/A
4:53 am 04:53 Cloudy 57 13.9 51 10.6 81 81 SSW 13 20 30 1016 10 16.0934 N/A
5:49 am 05:49 Cloudy with Rain 55 13 52 11 88 88 SSW 9 15 30.01 1016 2.5 4.02335 0.07 1.778
5:53 am 05:53 Cloudy with Rain 56 13.3 52 11.1 87 87 SW 13 20 30.01 1016 3 4.82802 0.09 2.286
6:06 am 06:06 Cloudy with Heavy Rain 55 12.8 52 11.1 90 90 SW 12 19 30.02 1017 1.75 2.816345 0.08 2.032
6:14 am 06:14 Cloudy with Heavy Rain 55 12.8 53 11.7 93 93 WSW 9 15 30.02 1017 1.5 2.41401 0.17 4.318
6:25 am 06:25 Cloudy with Heavy Rain 55 12.8 53 11.7 93 93 SSW 7 11 30.01 1016 2 3.21868 0.23 5.842
6:36 am 06:36 Cloudy with Light Rain 55 12.8 53 11.7 93 93 VRB 6 9 30.01 1016 6 9.65604 0.24 6.096
6:53 am 06:53 Cloudy with Light Rain 55 12.8 52 11.1 90 90 SSW 12 19 30 1016 10 16.0934 0.24 6.096
7:23 am 07:23 Cloudy with Light Rain 55 12.8 53 11.7 93 93 VRB 6 9 30 1016 10 16.0934 0.01 0.254
7:30 am 07:30 Cloudy with Light Rain 56 13.3 53 11.7 90 90 VRB 7 11 30.01 1016 10 16.0934 0.01 0.254
7:40 am 07:40 Cloudy with Light Rain 55 12.8 53 11.7 93 93 SSW 7 11 30.01 1016 7 11.26538 0.02 0.508
7:53 am 07:53 Cloudy with Rain 55 12.8 53 11.7 93 93 SW 6 9 30.02 1017 5 8.0467 0.04 1.016
8:05 am 08:05 Cloudy with Heavy Rain 55 12.8 53 11.7 93 93 SSW 7 11 30.01 1016 2 3.21868 0.05 1.27
8:18 am 08:18 Cloudy with Rain 55 12.8 53 11.7 93 93 S 5 7 30.01 1016 3 4.82802 0.09 2.286
8:31 am 08:31 Cloudy with Light Rain 55 12.8 53 11.7 93 93 VRB 3 6 30.01 1016 3 4.82802 0.12 3.048
8:49 am 08:49 Cloudy with Light Rain 55 13 54 12 94 94 N N/A 30 1016 4 6.43736 0.16 4.064
8:53 am 08:53 Cloudy with Rain 55 12.8 53 11.7 93 93 SW 5 7 30.01 1016 4 6.43736 0.16 4.064
9:05 am 09:05 Cloudy with Light Rain 55 12.8 53 11.7 93 93 SW 5 7 30.01 1016 2 3.21868 0.02 0.508
9:24 am 09:24 Cloudy with Light Rain 56 13.3 54 12.2 93 93 SW 8 13 30.02 1017 5 8.0467 0.04 1.016
9:41 am 09:41 Cloudy with Light Rain 57 13.9 54 12.2 90 90 WSW 13 20 30.03 1017 10 16.0934 0.04 1.016
9:53 am 09:53 Cloudy 57 13.9 54 12.2 90 90 W 10 17 30.03 1017 10 16.0934 0.04 1.016
10:26 am 10:26 Cloudy 56 13.3 51 10.6 84 84 WNW 14 22 30.07 1018 10 16.0934 0.001 0.001
10:53 am 10:53 Cloudy 55 12.8 50 10 83 83 WNW 14 22 30.09 1019 10 16.0934 0.001 0.001
11:01 am 11:01 Cloudy 54 12.2 50 10 87 87 WNW 13 20 30.1 1019 10 16.0934 N/A
11:26 am 11:26 Cloudy 54 12.2 49 9.4 83 83 WNW 14 22 30.11 1020 10 16.0934 N/A
11:53 am 11:53 Cloudy 55 12.8 49 9.4 80 80 WNW 14 22 30.12 1020 10 16.0934 N/A
12:53 pm 12:53 Cloudy 55 12.8 48 8.9 77 77 NW 16 26 30.15 1021 10 16.0934 N/A
1:02 pm 13:02 Cloudy 55 12.8 48 8.9 77 77 NW 13 20 30.15 1021 10 16.0934 N/A
1:28 pm 13:28 Cloudy 54 12.2 46 7.8 75 75 NW 15 24 30.16 1021 10 16.0934 N/A
1:53 pm 13:53 Cloudy 54 12.2 46 7.8 75 75 WNW 12 19 30.16 1021 10 16.0934 N/A
2:13 pm 14:13 Cloudy 53 11.7 47 8.3 80 80 WNW 8 13 30.16 1021 10 16.0934 N/A
2:53 pm 14:53 Cloudy 54 12.2 47 8.3 77 77 WNW 10 17 30.15 1021 10 16.0934 N/A
3:19 pm 15:19 Cloudy 53 11.7 46 7.8 77 77 NW 14 22 30.15 1021 10 16.0934 N/A
3:32 pm 15:32 Cloudy 54 12.2 46 7.8 75 75 WNW 12 19 30.16 1021 10 16.0934 N/A
3:53 pm 15:53 Cloudy 55 12.8 47 8.3 74 74 WNW 14 22 30.16 1021 10 16.0934 N/A
4:53 pm 16:53 Cloudy 52 11.1 46 7.8 80 80 WNW 13 20 30.18 1022 10 16.0934 N/A
5:42 pm 17:42 Cloudy 51 10.6 45 7.2 80 80 NW 13 20 30.2 1023 10 16.0934 N/A
5:51 pm 17:51 Cloudy 52 11 45 7 77 77 WNW 13 20 30.2 1023 10 16.0934 N/A
5:53 pm 17:53 Cloudy 51 10.6 44 6.7 77 77 WNW 14 22 30.19 1022 10 16.0934 N/A
6:53 pm 18:53 Cloudy 50 10 43 6.1 77 77 WNW 10 17 30.2 1023 10 16.0934 N/A
7:00 pm 19:00 Cloudy 50 10 43 6.1 77 77 WNW 10 17 30.21 1023 10 16.0934 N/A
7:53 pm 19:53 Cloudy 49 9.4 42 5.6 77 77 NNW 12 19 30.21 1023 10 16.0934 N/A
8:53 pm 20:53 Cloudy 47 8.3 41 5 80 80 N 7 11 30.24 1024 10 16.0934 N/A
9:50 pm 21:50 Cloudy 45 7 39 4 81 81 N 8 13 30.27 1025 10 16.0934 N/A
9:53 pm 21:53 Cloudy 45 7.2 39 3.9 80 80 NNW 7 11 30.25 1025 10 16.0934 N/A
10:53 pm 22:53 Cloudy 45 7.2 39 3.9 80 80 N 5 7 30.24 1024 10 16.0934 N/A
11:53 pm 23:53 Cloudy 44 6.7 39 3.9 83 83 N 5 7 30.24 1024 10 16.0934 N/A

Powered by AerisWeather